Flag for Spain Weather past 2 weeks in Madrid, Spain

Now
59 °F

Sunny.


Feels Like: 59 °F
Forecast: 30 / 52 °F
Wind: 1 mph from North

Location: Madrid / Cuatro Vientos

Current Time: Dec 22, 2014 at 5:36:34 PM

Latest Report: Dec 22, 2014 at 5:00 PM


Visibility: 10 mi

Pressure: 30.39 "Hg

Humidity: 36%

Dew point: 32 °F

Location of MadridLocation

Historic Weather in Madrid — Graph

°F

Madrid temperature yesterday

Maximum temperature yesterday: 57 °F (at 3:00 PM)
Minimum temperature yesterday: 37 °F (at 8:30 AM)
Average temperature yesterday: 48 °F

Past Weeks' High & Low Weather Summary

 TemperatureHumidityPressure
High63 °F (Dec 20, 4:00 PM)100% (Dec 8, 7:00 AM)30.54 "Hg (Dec 8, 7:00 AM)
Low30 °F (Dec 8, 7:00 AM)32% (Dec 20, 4:00 PM)29.83 "Hg (Dec 13, 3:00 PM)
Average48 °F74%30.28 "Hg
* Reported Dec 7 4:00 PM — Dec 22 4:30 PM, Madrid, Weather by CustomWeather, © 2014

Note: Actual official high and low records may vary slightly from our data, if they occured in-between our weather recording intervals... More about our weather records

Advertising

Madrid weather history for previous 24 hours

 ConditionsComfort  
Time TempWeatherWind HumidityBarometerVisibility
4:30 PM
Dec 22
59 °FSunny.1 mph36%30.39 "Hg10 mi
4:00 PM59 °FSunny.2 mph36%30.39 "Hg10 mi
3:30 PM57 °FPassing clouds.3 mph39%30.42 "HgN/A
3:00 PM57 °FPassing clouds.3 mph41%30.42 "HgN/A
2:30 PM57 °FPassing clouds.3 mph39%30.42 "HgN/A
2:00 PM55 °FPassing clouds.5 mph44%30.45 "HgN/A
1:30 PM55 °FPassing clouds.5 mph44%30.45 "HgN/A
1:00 PM55 °FSunny.1 mph51%30.45 "Hg10 mi
12:30 PM57 °FSunny.No wind51%30.48 "Hg10 mi
12:00 PM52 °FPassing clouds.3 mph58%30.48 "HgN/A
11:30 AM50 °FPassing clouds.3 mph62%30.48 "HgN/A
11:00 AM48 °FPassing clouds.3 mph62%30.48 "HgN/A
10:30 AM46 °FSunny.1 mph66%30.48 "Hg10 mi
10:00 AM45 °FSunny.1 mph66%30.48 "Hg10 mi
9:30 AM43 °FSunny.No wind71%30.48 "Hg10 mi
9:00 AM39 °FSunny.No wind81%30.48 "Hg10 mi
8:30 AM37 °FClear.1 mph81%30.45 "Hg10 mi
8:00 AM39 °FClear.1 mph75%30.45 "Hg10 mi
7:30 AM39 °FClear.2 mph75%30.45 "Hg10 mi
7:00 AM37 °FClear.2 mph81%30.45 "Hg10 mi
8:00 PM
Dec 21
43 °FClear.1 mph87%30.45 "Hg10 mi
7:30 PM43 °FClear.No wind87%30.45 "Hg10 mi
7:00 PM43 °FClear.No wind87%30.45 "Hg10 mi
6:30 PM46 °FClear.No wind76%30.45 "Hg10 mi
6:00 PM50 °FClear.No wind67%30.45 "Hg10 mi
5:30 PM55 °FSunny.No wind59%30.45 "Hg10 mi
5:00 PM57 °FSunny.1 mph55%30.45 "Hg10 mi
Weather by CustomWeather, © 2014

See weather overviewHow to use our weather pages